Orbital Elements at Epoch 2459200.5 (2020-Dec-17.0) TDB
Reference: JPL 4 (heliocentric ecliptic J2000)
Element | Value | Uncertainty (1-sigma) | Units |
e | .4186515775905044 | 0.00030063 | |
a | 1.272556755120423 | 0.00050435 | au |
q | .7397988620158047 | 0.00012721 | au |
i | 2.610647286393912 | 0.0027146 | deg |
node | 204.4104930652212 | 0.0066894 | deg |
peri | 258.5421566603738 | 0.010572 | deg |
M | 321.0354024314839 | 1.0461 | deg |
tp | 2459257.252090312860 (2021-Feb-11.75209031) | 1.5574 | TDB |
period | 524.3414224079619 1.44 | 0.31172 0.0008534 | d yr |
n | .686575549089279 | 0.00040817 | deg/d |
Q | 1.805314648225042 | 0.0007155 | au |
|
| | Orbit Determination Parameters
Additional Information
|